This is the latest recevied weather packets stored in our database for station/object KF7ROW. If no packets are shown the sender has not sent any weather packets the latest 10 day(s).
| Time | Temp. | Humidity | Pressure | Rain* | Wind** | Luminosity | Snow |
|---|---|---|---|---|---|---|---|
| 1778125013 | 12.78° C | 91% | 1026.5 hPa | 0 mm | - | 0 W/m² | - |
| 1778124710 | 12.78° C | 90% | 1026.4 hPa | 0 mm | - | 1 W/m² | - |
| 1778124407 | 12.78° C | 90% | 1026.4 hPa | 0 mm | - | 1 W/m² | - |
| 1778124103 | 12.78° C | 90% | 1026.5 hPa | 0 mm | - | 2 W/m² | - |
| 1778123800 | 12.78° C | 90% | 1026.4 hPa | 0 mm | - | 3 W/m² | - |
| 1778123496 | 12.78° C | 90% | 1026.4 hPa | 0 mm | - | 4 W/m² | - |
| 1778123193 | 12.78° C | 90% | 1026.4 hPa | 0 mm | - | 4 W/m² | - |
| 1778122891 | 12.78° C | 89% | 1026.2 hPa | 0 mm | - | 6 W/m² | - |
| 1778122588 | 12.78° C | 90% | 1026.3 hPa | 0 mm | - | 7 W/m² | - |
| 1778122284 | 12.78° C | 89% | 1026.2 hPa | 0 mm | - | 9 W/m² | - |
| 1778121983 | 12.78° C | 89% | 1026.3 hPa | 0 mm | - | 10 W/m² | - |
| 1778121680 | 12.78° C | 89% | 1026.3 hPa | 0 mm | - | 10 W/m² | - |
| 1778121375 | 12.78° C | 89% | 1026.2 hPa | 0 mm | - | 13 W/m² | - |
| 1778121073 | 12.78° C | 89% | 1026.3 hPa | 0 mm | - | 18 W/m² | - |
| 1778120769 | 12.78° C | 89% | 1026.3 hPa | 0 mm | - | 23 W/m² | - |
| 1778120465 | 12.78° C | 89% | 1026.3 hPa | 0 mm | - | 27 W/m² | - |
| 1778120161 | 12.78° C | 89% | 1026.4 hPa | 0 mm | - | 32 W/m² | - |
| 1778119857 | 12.78° C | 89% | 1026.1 hPa | 0 mm | - | 36 W/m² | - |
| 1778119556 | 12.78° C | 89% | 1026.2 hPa | 0 mm | - | 39 W/m² | - |
| 1778119252 | 12.78° C | 89% | 1026.4 hPa | 0 mm | - | 40 W/m² | - |
| 1778118950 | 12.78° C | 89% | 1026.4 hPa | 0 mm | - | 44 W/m² | - |
| 1778118647 | 12.78° C | 90% | 1026.4 hPa | 0 mm | - | 44 W/m² | - |
| 1778118344 | 12.78° C | 90% | 1026.4 hPa | 0 mm | - | 46 W/m² | - |
| 1778118039 | 12.78° C | 90% | 1026.5 hPa | 0 mm | - | 47 W/m² | - |
| 1778117737 | 12.78° C | 91% | 1026.6 hPa | 0 mm | - | 47 W/m² | - |
* Rain latest hour (hover to see other rain measurements)
** Current wind speed in m/s (hover to see current wind gust speed)